Find Starlink 37829

NORAD ID: 100405 Int'l Des: 2026-192 Owner: SPXS Country: US Constellation: starlink operational

当前视图

正在加载3D地球...

About Starlink 37829

Starlink 37829 (NORAD 100405) is a starlink constellation satellite launched Aug 21, 2026 by SPXS of US. with a mass of 575.00 kg.

即将过境

Passes for default location (London). Set your location on the main map for personalized predictions.

高度历史

Loading altitude history...

两行轨道根数

1 A0405U 26192B 26254.52663089 -.00541229 00000-0 -31828-2 0 9996
2 A0405 53.1595 349.2922 0002995 18.8665 341.2468 15.78937657 4515
Epoch: Sep 11, 2026 • Age: 10 hours

当前状态

高度 343.7 km
远地点 / 近地点 N/A
速度 7.70 km/s
星下点 -23.79°S, 144.19°W
发射日期 Aug 21, 2026
运行时间 21 days
类型 internet

技术详情

分类 Payload
质量 575.00 kg
干质量 530.00 kg
总质量 575.00 kg
长度 0.30 m
直径 4.10 m
跨度 29.00 m
形状 Box + pan
制造商 SPXS
平台类型 Starlink V2MO
阶段状态 In Orbit
所有者/国家 SPXS/US

Most Searched